#timestamp,LO_Frequency,Hit,StdDev 
1525906815.7,286047000.1,N
1525906835.5,286047000.0,N
1525906855.4,286047002.7,N
1525906875.2,286047002.7,N
1525906895.0,286047000.2,N
1525906895.9,286047000.2,N
1525906915.8,286047000.4,N
1525906935.6,286047000.3,N
1525906955.5,286047000.0,N
1525906975.3,286047002.8,N
1525906995.1,286047000.2,N
1525907015.9,286047000.6,N
1525907035.7,286047000.2,N
1525907055.5,286046999.8,N
1525907075.4,286046999.9,N
1525907095.2,286047002.8,N
1525907115.1,286047001.0,N
1525907116.0,286047001.0,N
1525907135.8,286046998.1,N
1525907155.6,286047000.1,N
1525907175.5,286046999.7,N
1525907195.3,286046999.8,N
1525907215.2,286047000.6,N
1525907235.9,286047000.0,N
1525907255.7,286047000.0,N
1525907275.6,286047000.1,N
1525907295.4,286047000.5,N
1525907315.2,286047000.0,N
1525907335.1,286047000.2,N
1525907336.0,286047000.2,N
1525907355.8,286047002.5,N
1525907375.7,286047004.1,Y
1525907395.5,286047003.6,P
1525907415.3,286047002.1,N
1525907435.2,286046999.8,N
1525907455.0,286047000.7,N
1525907455.9,286047000.7,N
1525907475.8,286047000.5,N
1525907495.6,286047000.9,N
1525907515.4,286046999.7,N
1525907535.3,286046999.9,N
1525907555.1,286047004.3,Y
1525907575.8,286047000.2,P
1525907595.7,286046998.1,P
1525907615.5,286046998.3,N
1525907635.4,286046998.5,N
1525907655.2,286047001.0,N
1525907675.0,286047000.7,N
1525907675.9,286047000.7,N
1525907695.8,286047002.6,N
1525907715.6,286047001.6,N
1525907735.4,286047002.2,N
1525907755.3,286047002.7,N
1525907775.1,286047001.7,N
1525907795.9,286047003.4,N
1525907815.7,286047003.5,N
1525907835.5,286047001.6,N
1525907855.4,286047001.8,N
1525907875.2,286047002.4,N
1525907895.0,286047002.4,N
1525907895.9,286047002.4,N
1525907915.8,286047000.3,N
1525907935.6,286046999.9,N
1525907955.5,286047001.8,N
1525907975.3,286047001.6,N
1525907995.1,286047004.3,N
1525908015.9,286047002.2,N
1525908035.7,286047001.5,N
1525908055.5,286047004.4,N
1525908075.4,286047002.0,N
1525908095.2,286047002.0,N
1525908115.1,286046999.9,N
1525908116.0,286046999.9,N
1525908135.8,286046999.8,N
1525908155.6,286047002.4,N
1525908175.5,286046999.7,N
1525908195.3,286047000.3,N
1525908215.1,286047000.9,N
1525908235.9,286046998.6,N
1525908255.7,286046999.7,N
1525908275.6,286047001.8,N
1525908295.4,286047003.9,N
1525908315.2,286047000.0,N
1525908335.1,286046999.8,N
1525908336.0,286046999.8,N
1525908355.8,286046999.7,N
1525908375.6,286047002.5,N
1525908395.5,286047002.6,N
1525908415.3,286047002.7,N
1525908435.2,286047000.3,N
1525908455.9,286047001.0,N
1525908475.7,286046999.8,N
1525908495.6,286047002.3,N
1525908515.4,286047001.7,N
1525908535.2,286047003.4,N
1525908555.1,286047002.8,N
1525908556.0,286047002.8,N
1525908575.8,286047001.0,N
1525908595.7,286046999.8,N
1525908615.5,286047001.4,N
1525908635.3,286047000.2,N
1525908655.2,286047002.0,N
1525908675.0,286046999.8,N
1525908675.9,286046999.8,N
1525908695.8,286047002.8,N
1525908715.6,286047002.3,N
1525908735.4,286047002.1,N
1525908755.3,286047003.9,N
1525908775.1,286047001.7,N
1525908795.9,286047004.2,Y
1525908815.7,286047000.5,P
1525908835.5,286047000.1,N
1525908855.4,286047000.8,N
1525908875.2,286047000.8,N
1525908895.0,286047001.2,N
1525908895.9,286047001.2,N
1525908915.8,286046999.7,N
1525908935.6,286047000.0,N
1525908955.5,286046998.1,Y
1525908975.3,286046998.9,P
1525908995.1,286046998.7,N
1525909015.9,286046999.4,N
1525909035.7,286046998.7,N
1525909055.5,286046998.8,N
1525909075.4,286046998.9,N
1525909095.2,286046998.8,N
1525909115.1,286047000.7,N
1525909116.0,286047000.7,N
1525909135.8,286047011.9,Y
1525909155.6,286047001.0,P
1525909175.5,286047000.9,N
1525909195.3,286046998.6,N
1525909215.2,286046999.0,N
1525909235.9,286046998.2,N
1525909255.7,286046998.2,N
1525909275.6,286046998.9,N
1525909295.4,286047000.1,N
1525909315.2,286047000.2,N
1525909335.1,286047000.7,N
1525909336.0,286047000.7,N
1525909355.8,286046999.8,N
1525909375.7,286047001.5,N
1525909395.5,286047002.1,N
1525909415.3,286047001.3,N
1525909435.2,286047001.8,N
1525909455.9,286047004.4,Y
1525909475.7,286046999.7,P
1525909495.6,286047001.7,P
1525909515.4,286046999.7,N
1525909535.3,286047000.9,N
1525909555.1,286047000.4,N
1525909556.0,286047000.4,N
1525909575.8,286046998.3,N
1525909595.7,286047001.0,N
1525909615.5,286047000.8,N
1525909635.3,286046999.8,N
1525909655.2,286046998.5,N
1525909675.0,286046998.2,N
1525909675.9,286046998.2,N
1525909695.8,286046998.6,N
1525909715.6,286046998.3,N
1525909735.4,286046998.2,N
1525909755.3,286047000.3,N
1525909775.1,286047002.7,N
1525909795.8,286046999.8,N
1525909815.7,286046999.7,N
1525909835.5,286047001.3,N
1525909855.4,286047002.4,N
1525909875.2,286047001.7,N
1525909895.0,286047001.3,N
1525909895.9,286047001.3,N
1525909915.8,286047001.6,N
1525909935.6,286047000.4,N
1525909955.4,286047000.5,N
1525909975.3,286047002.0,N
1525909995.1,286047002.0,N
1525910015.9,286047000.6,N
1525910035.7,286047001.5,N
1525910055.5,286047000.9,N
1525910075.4,286047001.5,N
1525910095.2,286047003.2,N
1525910115.0,286047001.5,N
1525910116.0,286047001.5,N
1525910135.8,286047003.9,N
1525910155.6,286047003.4,N
1525910175.5,286047007.6,Y
1525910195.3,286047007.6,P
1525910215.1,286047010.7,P
1525910235.9,286047008.4,N
1525910255.7,286047008.8,N
1525910275.6,286047008.4,N
1525910295.4,286047006.2,N
1525910315.2,286047009.9,Y
1525910335.1,286047004.4,P
1525910336.0,286047004.4,P
1525910355.8,286047002.3,N
1525910375.7,286047001.0,N
1525910395.5,286047000.8,N
